| time (UTC) | temp C | wind direction | speed KPH | gust KPH | rain 1hr cm | rain 24hr cm | rain mn cm | humidity % | barometer mb |
| 20260507231908 | 18 | 68 | 12.9 | 12.9 | 0.00 | 0.00 | 0.00 | 62 | 1009.0 |
| 20260507231409 | 18 | 45 | 4.8 | 6.4 | 0.00 | 0.00 | 0.00 | 62 | 1009.0 |
| 20260507230908 | 18 | 45 | 8.0 | 8.0 | 0.00 | 0.00 | 0.00 | 62 | 1009.0 |
| 20260507230409 | 18 | 45 | 9.7 | 9.7 | 0.00 | 0.00 | 0.00 | 60 | 1009.0 |
| 20260507225908 | 18 | 68 | 6.4 | 8.0 | 0.00 | 0.00 | 0.00 | 57 | 1009.0 |
| 20260507225409 | 18 | 68 | 1.6 | 1.6 | 0.00 | 0.00 | 0.00 | 55 | 1009.0 |
| 20260507224908 | 18 | 68 | 6.4 | 6.4 | 0.00 | 0.00 | 0.00 | 56 | 1009.0 |
| 20260507224408 | 18 | 68 | 8.0 | 9.7 | 0.00 | 0.00 | 0.00 | 59 | 1009.0 |
| 20260507223908 | 18 | 68 | 8.0 | 9.7 | 0.00 | 0.00 | 0.00 | 62 | 1009.0 |
| 20260507223409 | 18 | 22 | 9.7 | 9.7 | 0.00 | 0.00 | 0.00 | 62 | 1009.0 |
| 20260507222908 | 17 | 68 | 11.3 | 11.3 | 0.00 | 0.00 | 0.00 | 64 | 1010.0 |
| 20260507222408 | 17 | 68 | 9.7 | 9.7 | 0.00 | 0.00 | 0.00 | 63 | 1010.0 |
| 20260507221908 | 17 | 68 | 8.0 | 8.0 | 0.00 | 0.00 | 0.00 | 64 | 1010.0 |
| 20260507221408 | 17 | 90 | 12.9 | 14.5 | 0.00 | 0.00 | 0.00 | 68 | 1010.0 |
| 20260507220908 | 18 | 68 | 12.9 | 16.1 | 0.00 | 0.00 | 0.00 | 70 | 1010.0 |
| 20260507220408 | 18 | 68 | 6.4 | 6.4 | 0.00 | 0.00 | 0.00 | 70 | 1010.0 |
| 20260507215908 | 18 | 68 | 9.7 | 9.7 | 0.00 | 0.00 | 0.00 | 72 | 1010.0 |
| 20260507215408 | 18 | 90 | 3.2 | 3.2 | 0.00 | 0.00 | 0.00 | 72 | 1010.0 |
| 20260507214908 | 18 | 68 | 6.4 | 6.4 | 0.00 | 0.00 | 0.00 | 71 | 1010.0 |
| 20260507214409 | 18 | 68 | 11.3 | 12.9 | 0.00 | 0.00 | 0.00 | 70 | 1010.0 |
| 20260507213908 | 18 | 45 | 6.4 | 6.4 | 0.00 | 0.00 | 0.00 | 69 | 1010.0 |
| 20260507213409 | 19 | 68 | 8.0 | 8.0 | 0.00 | 0.00 | 0.00 | 67 | 1010.0 |
| 20260507212908 | 19 | 68 | 14.5 | 17.7 | 0.00 | 0.00 | 0.00 | 61 | 1010.0 |
| 20260507212409 | 19 | 90 | 8.0 | 8.0 | 0.00 | 0.00 | 0.00 | 58 | 1010.0 |
| 20260507211908 | 19 | 68 | 9.7 | 9.7 | 0.00 | 0.00 | 0.00 | 56 | 1010.0 |
| 20260507211408 | 19 | 68 | 8.0 | 8.0 | 0.00 | 0.00 | 0.00 | 54 | 1010.0 |
| 20260507210909 | 19 | 112 | 12.9 | 14.5 | 0.00 | 0.00 | 0.00 | 55 | 1010.0 |
| 20260507210408 | 19 | 68 | 9.7 | 11.3 | 0.00 | 0.00 | 0.00 | 53 | 1010.0 |
| 20260507205908 | 19 | 68 | 8.0 | 8.0 | 0.00 | 0.00 | 0.00 | 54 | 1010.0 |
| 20260507205409 | 19 | 68 | 8.0 | 8.0 | 0.00 | 0.00 | 0.00 | 56 | 1010.0 |
| 20260507204908 | 19 | 68 | 8.0 | 8.0 | 0.00 | 0.00 | 0.00 | 59 | 1010.0 |
| 20260507204408 | 19 | 112 | 11.3 | 12.9 | 0.00 | 0.00 | 0.00 | 59 | 1010.0 |
| 20260507203908 | 19 | 68 | 3.2 | 3.2 | 0.00 | 0.00 | 0.00 | 58 | 1010.0 |
| 20260507203408 | 19 | 68 | 8.0 | 8.0 | 0.00 | 0.00 | 0.00 | 56 | 1010.0 |
| 20260507202908 | 19 | 90 | 3.2 | 3.2 | 0.00 | 0.00 | 0.00 | 54 | 1010.0 |
| 20260507202409 | 19 | 202 | 8.0 | 9.7 | 0.00 | 0.00 | 0.00 | 50 | 1010.0 |
| 20260507201909 | 18 | 90 | 6.4 | 8.0 | 0.00 | 0.00 | 0.00 | 57 | 1010.0 |
| 20260507201408 | 19 | 180 | 8.0 | 8.0 | 0.00 | 0.00 | 0.00 | 62 | 1010.0 |
| 20260507200908 | 19 | 112 | 8.0 | 8.0 | 0.00 | 0.00 | 0.00 | 61 | 1010.0 |
| 20260507200409 | 19 | 112 | 6.4 | 8.0 | 0.00 | 0.00 | 0.00 | 64 | 1010.0 |
| 20260507195909 | 19 | 68 | 6.4 | 8.0 | 0.00 | 0.00 | 0.00 | 66 | 1011.0 |
| 20260507195408 | 19 | 90 | 8.0 | 9.7 | 0.00 | 0.00 | 0.00 | 65 | 1011.0 |
| 20260507194908 | 19 | 90 | 9.7 | 11.3 | 0.00 | 0.00 | 0.00 | 65 | 1011.0 |
| 20260507194409 | 19 | 90 | 8.0 | 9.7 | 0.00 | 0.00 | 0.00 | 60 | 1011.0 |
| 20260507193908 | 19 | 68 | 8.0 | 8.0 | 0.00 | 0.00 | 0.00 | 58 | 1011.0 |
| 20260507193408 | 19 | 112 | 4.8 | 6.4 | 0.00 | 0.00 | 0.00 | 57 | 1011.0 |
| 20260507192908 | 18 | 90 | 9.7 | 9.7 | 0.00 | 0.00 | 0.00 | 53 | 1011.0 |
| 20260507192408 | 18 | 90 | 0.0 | 0.0 | 0.00 | 0.00 | 0.00 | 54 | 1011.0 |
| 20260507191908 | 18 | 112 | 3.2 | 3.2 | 0.00 | 0.00 | 0.00 | 55 | 1011.0 |
| 20260507191409 | 18 | 68 | 8.0 | 8.0 | 0.00 | 0.00 | 0.00 | 54 | 1011.0 |
| 20260507190909 | 18 | 112 | 1.6 | 1.6 | 0.00 | 0.00 | 0.00 | 55 | 1011.0 |
| 20260507190409 | 18 | 112 | 6.4 | 6.4 | 0.00 | 0.00 | 0.00 | 54 | 1011.0 |
| 20260507185909 | 18 | 158 | 1.6 | 1.6 | 0.00 | 0.00 | 0.00 | 56 | 1010.0 |
| 20260507185410 | 18 | 180 | 3.2 | 3.2 | 0.00 | 0.00 | 0.00 | 57 | 1010.0 |
| 20260507184909 | 19 | 158 | 6.4 | 6.4 | 0.00 | 0.00 | 0.00 | 57 | 1010.0 |
| 20260507184408 | 19 | 158 | 8.0 | 8.0 | 0.00 | 0.00 | 0.00 | 59 | 1010.0 |
| 20260507183910 | 19 | 112 | 12.9 | 14.5 | 0.00 | 0.00 | 0.00 | 61 | 1010.0 |
| 20260507183408 | 19 | 112 | 3.2 | 3.2 | 0.00 | 0.00 | 0.00 | 60 | 1010.0 |
| 20260507182909 | 19 | 68 | 11.3 | 11.3 | 0.00 | 0.00 | 0.00 | 59 | 1010.0 |
| 20260507182409 | 19 | 112 | 6.4 | 8.0 | 0.00 | 0.00 | 0.00 | 59 | 1010.0 |
| 20260507181909 | 19 | 68 | 6.4 | 8.0 | 0.00 | 0.00 | 0.00 | 57 | 1010.0 |
| 20260507181410 | 19 | 112 | 6.4 | 8.0 | 0.00 | 0.00 | 0.00 | 61 | 1009.0 |
| 20260507180912 | 19 | 68 | 6.4 | 8.0 | 0.00 | 0.00 | 0.00 | 64 | 1009.0 |
| 20260507180410 | 19 | 90 | 9.7 | 9.7 | 0.00 | 0.00 | 0.00 | 63 | 1009.0 |
| 20260507175908 | 20 | 68 | 6.4 | 6.4 | 0.00 | 0.00 | 0.00 | 62 | 1009.0 |
| 20260507175408 | 20 | 68 | 8.0 | 8.0 | 0.00 | 0.00 | 0.00 | 61 | 1009.0 |
| 20260507174908 | 20 | 90 | 4.8 | 4.8 | 0.00 | 0.00 | 0.00 | 61 | 1009.0 |
| 20260507174409 | 20 | 68 | 6.4 | 6.4 | 0.00 | 0.00 | 0.00 | 61 | 1009.0 |
| 20260507173909 | 20 | 68 | 4.8 | 6.4 | 0.00 | 0.00 | 0.00 | 60 | 1009.0 |
| 20260507173410 | 20 | 68 | 3.2 | 3.2 | 0.00 | 0.00 | 0.00 | 62 | 1009.0 |
| 20260507172909 | 20 | 68 | 3.2 | 3.2 | 0.00 | 0.00 | 0.00 | 63 | 1009.0 |
| 20260507172409 | 20 | 68 | 8.0 | 8.0 | 0.00 | 0.00 | 0.00 | 61 | 1009.0 |
| 20260507171908 | 20 | 45 | 0.0 | 0.0 | 0.00 | 0.00 | 0.00 | 60 | 1009.0 |
| 20260507171408 | 20 | 45 | 0.0 | 0.0 | 0.00 | 0.00 | 0.00 | 59 | 1009.0 |
| 20260507170908 | 20 | 45 | 0.0 | 0.0 | 0.00 | 0.00 | 0.00 | 59 | 1009.0 |
| 20260507170409 | 21 | 68 | 3.2 | 3.2 | 0.00 | 0.00 | 0.00 | 59 | 1009.0 |
| 20260507165909 | 21 | 68 | 1.6 | 1.6 | 0.00 | 0.00 | 0.00 | 59 | 1009.0 |
| 20260507165408 | 21 | 0 | 9.7 | 9.7 | 0.00 | 0.00 | 0.00 | 58 | 1009.0 |
| 20260507164908 | 21 | 248 | 0.0 | 0.0 | 0.00 | 0.00 | 0.00 | 52 | 1009.0 |
| 20260507164408 | 21 | 248 | 0.0 | 0.0 | 0.00 | 0.00 | 0.00 | 49 | 1009.0 |
| 20260507163908 | 21 | 225 | 3.2 | 3.2 | 0.00 | 0.00 | 0.00 | 53 | 1009.0 |
| 20260507163408 | 21 | 248 | 0.0 | 0.0 | 0.00 | 0.00 | 0.00 | 51 | 1009.0 |
| 20260507162909 | 21 | 202 | 0.0 | 0.0 | 0.00 | 0.00 | 0.00 | 54 | 1009.0 |
| 20260507162408 | 21 | 292 | 3.2 | 3.2 | 0.00 | 0.00 | 0.00 | 54 | 1009.0 |
| 20260507161908 | 20 | 22 | 1.6 | 1.6 | 0.00 | 0.00 | 0.00 | 58 | 1009.0 |
| 20260507161409 | 20 | 315 | 6.4 | 8.0 | 0.00 | 0.00 | 0.00 | 59 | 1009.0 |
| 20260507160909 | 20 | 338 | 3.2 | 3.2 | 0.00 | 0.00 | 0.00 | 59 | 1009.0 |
| 20260507160410 | 20 | 292 | 3.2 | 3.2 | 0.00 | 0.00 | 0.00 | 61 | 1009.0 |
| 20260507155908 | 21 | 248 | 0.0 | 0.0 | 0.00 | 0.00 | 0.00 | 62 | 1010.0 |
| 20260507155411 | 21 | 248 | 6.4 | 8.0 | 0.00 | 0.00 | 0.00 | 61 | 1010.0 |
| 20260507154909 | 21 | 315 | 4.8 | 6.4 | 0.00 | 0.00 | 0.00 | 57 | 1010.0 |
| 20260507154408 | 21 | 270 | 6.4 | 6.4 | 0.00 | 0.00 | 0.00 | 57 | 1009.0 |
| 20260507153910 | 21 | 270 | 3.2 | 3.2 | 0.00 | 0.00 | 0.00 | 57 | 1009.0 |
| 20260507153409 | 22 | 248 | 8.0 | 9.7 | 0.00 | 0.00 | 0.00 | 56 | 1009.0 |
| 20260507152909 | 21 | 202 | 3.2 | 3.2 | 0.00 | 0.00 | 0.00 | 56 | 1010.0 |
| 20260507152409 | 21 | 292 | 0.0 | 0.0 | 0.00 | 0.00 | 0.00 | 57 | 1010.0 |
| 20260507151909 | 21 | 248 | 3.2 | 3.2 | 0.00 | 0.00 | 0.00 | 61 | 1010.0 |
| 20260507151409 | 21 | 292 | 8.0 | 8.0 | 0.00 | 0.00 | 0.00 | 62 | 1010.0 |
| 20260507150909 | 21 | 248 | 8.0 | 9.7 | 0.00 | 0.00 | 0.00 | 63 | 1010.0 |
| 20260507150408 | 21 | 248 | 1.6 | 1.6 | 0.00 | 0.00 | 0.00 | 63 | 1010.0 |
| 20260507145910 | 20 | 292 | 9.7 | 9.7 | 0.00 | 0.00 | 0.00 | 61 | 1010.0 |
| 20260507145408 | 21 | 270 | 6.4 | 6.4 | 0.00 | 0.00 | 0.00 | 60 | 1010.0 |
| 20260507144909 | 21 | 292 | 9.7 | 9.7 | 0.00 | 0.00 | 0.00 | 59 | 1010.0 |
| 20260507144409 | 21 | 292 | 6.4 | 6.4 | 0.00 | 0.00 | 0.00 | 57 | 1010.0 |
| 20260507143908 | 21 | 248 | 3.2 | 3.2 | 0.00 | 0.00 | 0.00 | 53 | 1010.0 |
| 20260507143409 | 21 | 202 | 9.7 | 9.7 | 0.00 | 0.00 | 0.00 | 54 | 1010.0 |
| 20260507142908 | 21 | 225 | 11.3 | 11.3 | 0.00 | 0.00 | 0.00 | 56 | 1010.0 |
| 20260507142409 | 21 | 225 | 9.7 | 11.3 | 0.00 | 0.00 | 0.00 | 54 | 1010.0 |
| 20260507141910 | 21 | 248 | 12.9 | 14.5 | 0.00 | 0.00 | 0.00 | 46 | 1010.0 |
| 20260507141409 | 21 | 248 | 14.5 | 17.7 | 0.00 | 0.00 | 0.00 | 45 | 1010.0 |
| 20260507140909 | 21 | 225 | 9.7 | 9.7 | 0.00 | 0.00 | 0.00 | 45 | 1010.0 |
| 20260507140409 | 21 | 225 | 9.7 | 9.7 | 0.00 | 0.00 | 0.00 | 51 | 1010.0 |
| 20260507135909 | 22 | 248 | 12.9 | 14.5 | 0.00 | 0.00 | 0.00 | 45 | 1010.0 |
| 20260507135410 | 22 | 248 | 9.7 | 9.7 | 0.00 | 0.00 | 0.00 | 46 | 1010.0 |
| 20260507134909 | 22 | 225 | 12.9 | 14.5 | 0.00 | 0.00 | 0.00 | 47 | 1010.0 |
| 20260507134409 | 22 | 292 | 9.7 | 9.7 | 0.00 | 0.00 | 0.00 | 54 | 1010.0 |
| 20260507133908 | 21 | 202 | 9.7 | 11.3 | 0.00 | 0.00 | 0.00 | 53 | 1010.0 |
| 20260507133408 | 21 | 202 | 11.3 | 11.3 | 0.00 | 0.00 | 0.00 | 54 | 1010.0 |
| 20260507132909 | 22 | 225 | 12.9 | 14.5 | 0.00 | 0.00 | 0.00 | 56 | 1010.0 |
| 20260507132409 | 22 | 202 | 12.9 | 16.1 | 0.00 | 0.00 | 0.00 | 55 | 1010.0 |
| 20260507131909 | 22 | 225 | 11.3 | 11.3 | 0.00 | 0.00 | 0.00 | 52 | 1010.0 |
| 20260507131409 | 22 | 225 | 9.7 | 9.7 | 0.00 | 0.00 | 0.00 | 49 | 1010.0 |
| 20260507130908 | 22 | 180 | 8.0 | 9.7 | 0.00 | 0.00 | 0.00 | 43 | 1010.0 |
| 20260507130408 | 22 | 202 | 9.7 | 9.7 | 0.00 | 0.00 | 0.00 | 46 | 1010.0 |
| 20260507125909 | 22 | 202 | 9.7 | 9.7 | 0.00 | 0.00 | 0.00 | 45 | 1010.0 |
| 20260507125409 | 22 | 248 | 12.9 | 14.5 | 0.00 | 0.00 | 0.00 | 46 | 1010.0 |
| 20260507124908 | 22 | 202 | 12.9 | 12.9 | 0.00 | 0.00 | 0.00 | 45 | 1010.0 |
| 20260507124408 | 23 | 248 | 9.7 | 9.7 | 0.00 | 0.00 | 0.00 | 44 | 1010.0 |
| 20260507123909 | 23 | 248 | 9.7 | 9.7 | 0.00 | 0.00 | 0.00 | 42 | 1010.0 |
| 20260507123408 | 25 | 248 | 12.9 | 14.5 | 0.00 | 0.00 | 0.00 | 37 | 1010.0 |
| 20260507122909 | 25 | 180 | 8.0 | 9.7 | 0.00 | 0.00 | 0.00 | 33 | 1009.0 |
| 20260507122408 | 25 | 248 | 4.8 | 4.8 | 0.00 | 0.00 | 0.00 | 35 | 1009.0 |
| 20260507121909 | 25 | 135 | 4.8 | 6.4 | 0.00 | 0.00 | 0.00 | 36 | 1009.0 |
| 20260507121408 | 25 | 68 | 9.7 | 9.7 | 0.00 | 0.00 | 0.00 | 37 | 1010.0 |
| 20260507120908 | 26 | 68 | 6.4 | 6.4 | 0.00 | 0.00 | 0.00 | 37 | 1010.0 |
| 20260507120409 | 26 | 112 | 4.8 | 4.8 | 0.00 | 0.00 | 0.00 | 33 | 1010.0 |
| 20260507115908 | 26 | 112 | 1.6 | 1.6 | 0.00 | 0.00 | 0.00 | 35 | 1010.0 |
| 20260507115409 | 25 | 112 | 8.0 | 8.0 | 0.00 | 0.00 | 0.00 | 33 | 1010.0 |
| 20260507114908 | 25 | 22 | 0.0 | 0.0 | 0.00 | 0.00 | 0.00 | 33 | 1010.0 |
| 20260507114408 | 24 | 68 | 0.0 | 0.0 | 0.00 | 0.00 | 0.00 | 34 | 1010.0 |
| 20260507113908 | 23 | 112 | 3.2 | 3.2 | 0.00 | 0.00 | 0.00 | 31 | 1010.0 |
| 20260507113408 | 23 | 112 | 9.7 | 9.7 | 0.00 | 0.00 | 0.00 | 29 | 1010.0 |
| 20260507112909 | 23 | 68 | 8.0 | 8.0 | 0.00 | 0.00 | 0.00 | 25 | 1010.0 |
| 20260507112409 | 23 | 68 | 8.0 | 8.0 | 0.00 | 0.00 | 0.00 | 34 | 1010.0 |
| 20260507111909 | 23 | 45 | 1.6 | 1.6 | 0.00 | 0.00 | 0.00 | 36 | 1010.0 |
| 20260507111409 | 22 | 90 | 6.4 | 8.0 | 0.00 | 0.00 | 0.00 | 35 | 1010.0 |
| 20260507110909 | 22 | 68 | 9.7 | 11.3 | 0.00 | 0.00 | 0.00 | 38 | 1010.0 |
| 20260507110409 | 22 | 90 | 6.4 | 8.0 | 0.00 | 0.00 | 0.00 | 37 | 1010.0 |
| 20260507105909 | 22 | 68 | 9.7 | 11.3 | 0.00 | 0.00 | 0.00 | 38 | 1010.0 |
| 20260507105408 | 22 | 112 | 0.0 | 0.0 | 0.00 | 0.00 | 0.00 | 37 | 1010.0 |
| 20260507104912 | 22 | 112 | 6.4 | 6.4 | 0.00 | 0.00 | 0.00 | 38 | 1010.0 |
| 20260507104409 | 22 | 68 | 11.3 | 11.3 | 0.00 | 0.00 | 0.00 | 38 | 1010.0 |
| 20260507103908 | 22 | 90 | 9.7 | 9.7 | 0.00 | 0.00 | 0.00 | 36 | 1010.0 |
| 20260507102955 | 22 | 112 | 8.0 | 8.0 | 0.00 | 0.00 | 0.00 | 33 | 1011.0 |
| 20260507102408 | 22 | 90 | 9.7 | 9.7 | 0.00 | 0.00 | 0.00 | 37 | 1011.0 |
| 20260507101909 | 22 | 68 | 8.0 | 8.0 | 0.00 | 0.00 | 0.00 | 38 | 1011.0 |
| 20260507101409 | 22 | 45 | 6.4 | 8.0 | 0.00 | 0.00 | 0.00 | 42 | 1011.0 |
| 20260507100908 | 22 | 22 | 0.0 | 0.0 | 0.00 | 0.00 | 0.00 | 42 | 1011.0 |
| 20260507100409 | 21 | 45 | 1.6 | 1.6 | 0.00 | 0.00 | 0.00 | 45 | 1011.0 |
| 20260507095909 | 21 | 112 | 4.8 | 4.8 | 0.00 | 0.00 | 0.00 | 43 | 1011.0 |
| 20260507095409 | 21 | 112 | 3.2 | 3.2 | 0.00 | 0.00 | 0.00 | 43 | 1011.0 |
| 20260507094909 | 21 | 68 | 3.2 | 3.2 | 0.00 | 0.00 | 0.00 | 43 | 1011.0 |
| 20260507094409 | 21 | 68 | 8.0 | 8.0 | 0.00 | 0.00 | 0.00 | 42 | 1011.0 |
| 20260507093908 | 21 | 68 | 8.0 | 8.0 | 0.00 | 0.00 | 0.00 | 42 | 1011.0 |
| 20260507093410 | 21 | 45 | 8.0 | 8.0 | 0.00 | 0.00 | 0.00 | 39 | 1011.0 |
| 20260507092908 | 21 | 68 | 9.7 | 9.7 | 0.00 | 0.00 | 0.00 | 41 | 1011.0 |
| 20260507092409 | 21 | 68 | 6.4 | 8.0 | 0.00 | 0.00 | 0.00 | 43 | 1011.0 |
| 20260507091908 | 21 | 68 | 3.2 | 3.2 | 0.00 | 0.00 | 0.00 | 43 | 1011.0 |
| 20260507091409 | 21 | 68 | 6.4 | 6.4 | 0.00 | 0.00 | 0.00 | 43 | 1010.0 |
| 20260507090908 | 21 | 68 | 6.4 | 8.0 | 0.00 | 0.00 | 0.00 | 40 | 1010.0 |
| 20260507090408 | 21 | 112 | 3.2 | 3.2 | 0.00 | 0.00 | 0.00 | 42 | 1010.0 |
| 20260507085909 | 21 | 68 | 4.8 | 6.4 | 0.00 | 0.00 | 0.00 | 44 | 1011.0 |
| 20260507085409 | 21 | 68 | 8.0 | 8.0 | 0.00 | 0.00 | 0.00 | 45 | 1011.0 |
| 20260507084908 | 21 | 22 | 6.4 | 6.4 | 0.00 | 0.00 | 0.00 | 44 | 1011.0 |
| 20260507084409 | 21 | 68 | 4.8 | 4.8 | 0.00 | 0.00 | 0.00 | 47 | 1011.0 |
| 20260507083908 | 21 | 68 | 3.2 | 3.2 | 0.00 | 0.00 | 0.00 | 49 | 1011.0 |
| 20260507083408 | 21 | 0 | 6.4 | 8.0 | 0.00 | 0.00 | 0.00 | 49 | 1011.0 |
| 20260507082908 | 21 | 68 | 4.8 | 6.4 | 0.00 | 0.00 | 0.00 | 49 | 1011.0 |
| 20260507082410 | 22 | 90 | 4.8 | 4.8 | 0.00 | 0.00 | 0.00 | 46 | 1011.0 |
| 20260507081911 | 22 | 68 | 4.8 | 4.8 | 0.00 | 0.00 | 0.00 | 43 | 1011.0 |
| 20260507081408 | 22 | 68 | 8.0 | 8.0 | 0.00 | 0.00 | 0.00 | 44 | 1011.0 |
| 20260507080909 | 21 | 270 | 3.2 | 3.2 | 0.00 | 0.00 | 0.00 | 43 | 1011.0 |
| 20260507080408 | 21 | 0 | 3.2 | 3.2 | 0.00 | 0.00 | 0.00 | 47 | 1011.0 |
| 20260507075908 | 20 | 225 | 0.0 | 0.0 | 0.00 | 0.00 | 0.00 | 51 | 1011.0 |
| 20260507075408 | 20 | 112 | 3.2 | 3.2 | 0.00 | 0.00 | 0.00 | 51 | 1011.0 |
| 20260507074912 | 19 | 90 | 4.8 | 4.8 | 0.00 | 0.00 | 0.00 | 54 | 1011.0 |
| 20260507074409 | 18 | 90 | 1.6 | 1.6 | 0.00 | 0.00 | 0.00 | 58 | 1011.0 |
| 20260507073908 | 18 | 68 | 4.8 | 6.4 | 0.00 | 0.00 | 0.00 | 63 | 1011.0 |
| 20260507073408 | 18 | 68 | 8.0 | 8.0 | 0.00 | 0.00 | 0.00 | 63 | 1011.0 |
| 20260507072908 | 18 | 68 | 6.4 | 6.4 | 0.00 | 0.00 | 0.00 | 69 | 1010.0 |
| 20260507072408 | 18 | 112 | 3.2 | 3.2 | 0.00 | 0.00 | 0.00 | 69 | 1010.0 |
| 20260507071908 | 17 | 68 | 6.4 | 8.0 | 0.00 | 0.00 | 0.00 | 69 | 1010.0 |
| 20260507071409 | 17 | 68 | 11.3 | 12.9 | 0.00 | 0.00 | 0.00 | 72 | 1011.0 |
| 20260507070908 | 17 | 68 | 8.0 | 8.0 | 0.00 | 0.00 | 0.00 | 73 | 1011.0 |
| 20260507070409 | 18 | 68 | 9.7 | 9.7 | 0.00 | 0.00 | 0.00 | 72 | 1011.0 |
| 20260507065909 | 17 | 112 | 11.3 | 12.9 | 0.00 | 0.00 | 0.00 | 72 | 1011.0 |
| 20260507065408 | 17 | 68 | 6.4 | 6.4 | 0.00 | 0.00 | 0.00 | 72 | 1011.0 |
| 20260507064910 | 17 | 68 | 9.7 | 9.7 | 0.00 | 0.00 | 0.00 | 73 | 1011.0 |
| 20260507064408 | 17 | 68 | 11.3 | 11.3 | 0.00 | 0.00 | 0.00 | 71 | 1011.0 |
| 20260507063908 | 18 | 90 | 6.4 | 8.0 | 0.00 | 0.00 | 0.00 | 71 | 1011.0 |
| 20260507063409 | 18 | 90 | 11.3 | 12.9 | 0.00 | 0.00 | 0.00 | 69 | 1011.0 |
| 20260507062908 | 18 | 68 | 3.2 | 3.2 | 0.00 | 0.00 | 0.00 | 68 | 1011.0 |
| 20260507062408 | 18 | 68 | 0.0 | 0.0 | 0.00 | 0.00 | 0.00 | 68 | 1011.0 |
| 20260507061908 | 17 | 0 | 1.6 | 1.6 | 0.00 | 0.00 | 0.00 | 70 | 1011.0 |
| 20260507061410 | 17 | 315 | 0.0 | 0.0 | 0.00 | 0.00 | 0.00 | 70 | 1011.0 |
| 20260507060908 | 17 | 338 | 3.2 | 3.2 | 0.00 | 0.00 | 0.00 | 70 | 1011.0 |
| 20260507060409 | 17 | 315 | 0.0 | 0.0 | 0.00 | 0.00 | 0.00 | 71 | 1011.0 |
| 20260507055909 | 17 | 292 | 1.6 | 1.6 | 0.00 | 0.00 | 0.00 | 72 | 1011.0 |
| 20260507055408 | 17 | 315 | 3.2 | 3.2 | 0.00 | 0.00 | 0.00 | 71 | 1011.0 |
| 20260507054908 | 17 | 338 | 1.6 | 1.6 | 0.00 | 0.00 | 0.00 | 69 | 1011.0 |
| 20260507054412 | 17 | 45 | 0.0 | 0.0 | 0.00 | 0.00 | 0.00 | 68 | 1011.0 |
| 20260507053908 | 17 | 45 | 0.0 | 0.0 | 0.00 | 0.00 | 0.00 | 68 | 1011.0 |
| 20260507053408 | 17 | 45 | 0.0 | 0.0 | 0.00 | 0.00 | 0.00 | 68 | 1011.0 |
| 20260507052909 | 17 | 45 | 0.0 | 0.0 | 0.00 | 0.00 | 0.00 | 69 | 1010.0 |
| 20260507052408 | 17 | 45 | 1.6 | 1.6 | 0.00 | 0.00 | 0.00 | 70 | 1010.0 |
| 20260507051908 | 17 | 45 | 3.2 | 3.2 | 0.00 | 0.00 | 0.00 | 68 | 1010.0 |
| 20260507051409 | 16 | 45 | 0.0 | 0.0 | 0.00 | 0.00 | 0.00 | 68 | 1010.0 |
| 20260507050908 | 16 | 45 | 0.0 | 0.0 | 0.00 | 0.00 | 0.00 | 69 | 1010.0 |
| 20260507050408 | 16 | 45 | 3.2 | 3.2 | 0.00 | 0.00 | 0.00 | 68 | 1010.0 |
| 20260507045910 | 16 | 90 | 1.6 | 1.6 | 0.00 | 0.00 | 0.00 | 69 | 1010.0 |
| 20260507045408 | 16 | 68 | 6.4 | 8.0 | 0.00 | 0.00 | 0.00 | 68 | 1010.0 |
| 20260507044909 | 16 | 45 | 0.0 | 0.0 | 0.00 | 0.00 | 0.00 | 69 | 1010.0 |
| 20260507044408 | 16 | 45 | 0.0 | 0.0 | 0.00 | 0.00 | 0.00 | 69 | 1010.0 |
| 20260507043909 | 15 | 68 | 0.0 | 0.0 | 0.00 | 0.00 | 0.00 | 70 | 1010.0 |
| 20260507043408 | 15 | 68 | 6.4 | 6.4 | 0.00 | 0.00 | 0.00 | 71 | 1010.0 |
| 20260507042909 | 15 | 112 | 3.2 | 3.2 | 0.00 | 0.00 | 0.00 | 72 | 1009.0 |
| 20260507042408 | 15 | 90 | 3.2 | 3.2 | 0.00 | 0.00 | 0.00 | 73 | 1009.0 |
| 20260507041908 | 15 | 68 | 4.8 | 4.8 | 0.00 | 0.00 | 0.00 | 74 | 1009.0 |
| 20260507041408 | 15 | 68 | 6.4 | 6.4 | 0.00 | 0.00 | 0.00 | 75 | 1009.0 |
| 20260507040908 | 15 | 45 | 3.2 | 3.2 | 0.00 | 0.00 | 0.00 | 76 | 1009.0 |
| 20260507040409 | 15 | 68 | 0.0 | 0.0 | 0.00 | 0.00 | 0.00 | 77 | 1009.0 |
| 20260507035908 | 15 | 68 | 6.4 | 8.0 | 0.00 | 0.00 | 0.00 | 77 | 1009.0 |
| 20260507035409 | 15 | 68 | 6.4 | 8.0 | 0.00 | 0.00 | 0.00 | 77 | 1009.0 |
| 20260507034909 | 15 | 68 | 3.2 | 3.2 | 0.00 | 0.00 | 0.00 | 76 | 1009.0 |
| 20260507034408 | 15 | 68 | 4.8 | 4.8 | 0.00 | 0.00 | 0.00 | 76 | 1009.0 |
| 20260507033908 | 15 | 68 | 8.0 | 8.0 | 0.00 | 0.00 | 0.00 | 76 | 1009.0 |
| 20260507033409 | 15 | 68 | 9.7 | 9.7 | 0.00 | 0.00 | 0.00 | 76 | 1009.0 |
| 20260507032909 | 15 | 68 | 9.7 | 9.7 | 0.00 | 0.00 | 0.00 | 75 | 1009.0 |
| 20260507032410 | 15 | 68 | 8.0 | 8.0 | 0.00 | 0.00 | 0.00 | 75 | 1009.0 |
| 20260507031909 | 15 | 68 | 8.0 | 8.0 | 0.00 | 0.00 | 0.00 | 75 | 1009.0 |
| 20260507031409 | 15 | 68 | 8.0 | 8.0 | 0.00 | 0.00 | 0.00 | 75 | 1009.0 |
| 20260507030908 | 15 | 68 | 4.8 | 4.8 | 0.00 | 0.00 | 0.00 | 75 | 1009.0 |
| 20260507030409 | 15 | 68 | 8.0 | 8.0 | 0.00 | 0.00 | 0.00 | 75 | 1009.0 |
| 20260507025908 | 15 | 68 | 4.8 | 4.8 | 0.00 | 0.00 | 0.00 | 74 | 1009.0 |
| 20260507025408 | 15 | 68 | 9.7 | 9.7 | 0.00 | 0.00 | 0.00 | 74 | 1009.0 |
| 20260507024909 | 15 | 68 | 9.7 | 9.7 | 0.00 | 0.00 | 0.00 | 75 | 1009.0 |
| 20260507024409 | 15 | 68 | 8.0 | 8.0 | 0.00 | 0.00 | 0.00 | 76 | 1009.0 |
| 20260507023908 | 15 | 68 | 4.8 | 6.4 | 0.00 | 0.00 | 0.00 | 79 | 1009.0 |
| 20260507023408 | 15 | 68 | 9.7 | 9.7 | 0.00 | 0.00 | 0.00 | 80 | 1009.0 |
| 20260507022909 | 15 | 45 | 6.4 | 6.4 | 0.00 | 0.00 | 0.00 | 83 | 1009.0 |
| 20260507022408 | 15 | 68 | 8.0 | 8.0 | 0.00 | 0.00 | 0.00 | 83 | 1009.0 |
| 20260507021909 | 15 | 90 | 4.8 | 4.8 | 0.00 | 0.00 | 0.00 | 83 | 1009.0 |
| 20260507021408 | 15 | 68 | 8.0 | 8.0 | 0.00 | 0.00 | 0.00 | 83 | 1010.0 |
| 20260507020908 | 15 | 68 | 6.4 | 6.4 | 0.00 | 0.00 | 0.00 | 82 | 1010.0 |
| 20260507020409 | 15 | 90 | 4.8 | 4.8 | 0.00 | 0.00 | 0.00 | 82 | 1010.0 |
| 20260507015910 | 15 | 68 | 8.0 | 8.0 | 0.00 | 0.00 | 0.00 | 81 | 1010.0 |
| 20260507015408 | 15 | 68 | 3.2 | 3.2 | 0.00 | 0.00 | 0.00 | 81 | 1010.0 |
| 20260507014909 | 15 | 68 | 9.7 | 9.7 | 0.00 | 0.00 | 0.00 | 80 | 1010.0 |
| 20260507014408 | 15 | 68 | 6.4 | 8.0 | 0.00 | 0.00 | 0.00 | 79 | 1010.0 |
| 20260507013908 | 15 | 68 | 3.2 | 3.2 | 0.00 | 0.00 | 0.00 | 77 | 1010.0 |
| 20260507013409 | 15 | 68 | 11.3 | 11.3 | 0.00 | 0.00 | 0.00 | 77 | 1010.0 |
| 20260507012909 | 15 | 68 | 6.4 | 8.0 | 0.00 | 0.00 | 0.00 | 76 | 1010.0 |
| 20260507012408 | 15 | 68 | 4.8 | 4.8 | 0.00 | 0.00 | 0.00 | 76 | 1010.0 |
| 20260507011908 | 15 | 45 | 8.0 | 8.0 | 0.00 | 0.00 | 0.00 | 76 | 1010.0 |
| 20260507011409 | 15 | 68 | 3.2 | 3.2 | 0.00 | 0.00 | 0.00 | 77 | 1010.0 |
| 20260507010908 | 15 | 45 | 4.8 | 4.8 | 0.00 | 0.00 | 0.00 | 78 | 1010.0 |
| 20260507010410 | 15 | 90 | 4.8 | 4.8 | 0.00 | 0.00 | 0.00 | 80 | 1010.0 |
| 20260507005908 | 15 | 45 | 8.0 | 8.0 | 0.00 | 0.00 | 0.00 | 82 | 1010.0 |
| 20260507005409 | 15 | 22 | 0.0 | 0.0 | 0.00 | 0.00 | 0.00 | 83 | 1010.0 |
| 20260507004910 | 15 | 68 | 9.7 | 9.7 | 0.00 | 0.00 | 0.00 | 84 | 1010.0 |
| 20260507004409 | 15 | 68 | 6.4 | 6.4 | 0.00 | 0.00 | 0.00 | 84 | 1010.0 |
| 20260507003910 | 15 | 68 | 8.0 | 8.0 | 0.00 | 0.00 | 0.00 | 84 | 1010.0 |
| 20260507003409 | 15 | 68 | 8.0 | 8.0 | 0.00 | 0.00 | 0.00 | 84 | 1010.0 |
| 20260507002908 | 15 | 68 | 4.8 | 4.8 | 0.00 | 0.00 | 0.00 | 85 | 1010.0 |
| 20260507002408 | 15 | 90 | 4.8 | 6.4 | 0.00 | 0.00 | 0.00 | 85 | 1010.0 |
| 20260507001908 | 15 | 68 | 6.4 | 6.4 | 0.00 | 0.00 | 0.00 | 86 | 1010.0 |
| 20260507001408 | 15 | 68 | 3.2 | 3.2 | 0.00 | 0.00 | 0.00 | 86 | 1010.0 |
| 20260507000909 | 15 | 45 | 6.4 | 6.4 | 0.00 | 0.00 | 0.00 | 86 | 1010.0 |
| 20260507000408 | 15 | 45 | 1.6 | 1.6 | 0.00 | 0.00 | 0.00 | 86 | 1010.0 |
| 20260506235909 | 15 | 68 | 1.6 | 1.6 | 0.00 | 0.00 | 0.00 | 86 | 1010.0 |
| 20260506235408 | 15 | 68 | 4.8 | 4.8 | 0.00 | 0.00 | 0.00 | 86 | 1010.0 |
| 20260506234908 | 15 | 45 | 3.2 | 3.2 | 0.00 | 0.00 | 0.00 | 86 | 1010.0 |
| 20260506234408 | 15 | 68 | 4.8 | 4.8 | 0.00 | 0.00 | 0.00 | 87 | 1010.0 |
| 20260506233909 | 15 | 68 | 3.2 | 3.2 | 0.00 | 0.00 | 0.00 | 87 | 1010.0 |
| 20260506233409 | 15 | 22 | 4.8 | 6.4 | 0.00 | 0.00 | 0.00 | 88 | 1010.0 |
| 20260506232908 | 15 | 45 | 4.8 | 4.8 | 0.00 | 0.00 | 0.00 | 89 | 1010.0 |
| 20260506232409 | 15 | 45 | 4.8 | 4.8 | 0.00 | 0.00 | 0.00 | 90 | 1010.0 |